| time (UTC) | temp F | wind direction | speed MPH | gust MPH | rain 1hr in | rain 24hr in | rain mn in | humidity % | barometer mb |
| 20260901023105 | 79 | 0 | 0.0 | 0.0 | 0.00 | 0.00 | 0.00 | 85 | 1018.6 |
| 20260901021556 | 80 | 0 | 0.0 | 0.0 | 0.00 | 0.00 | 0.00 | 81 | 1018.5 |
| 20260901020108 | 80 | 0 | 0.0 | 0.0 | 0.00 | 0.00 | 0.00 | 80 | 1018.4 |
| 20260901014604 | 81 | 0 | 0.0 | 0.0 | 0.00 | 0.00 | 0.00 | 79 | 1018.4 |
| 20260901013108 | 81 | 0 | 0.0 | 0.0 | 0.00 | 0.00 | 0.00 | 78 | 1018.3 |
| 20260901011556 | 82 | 0 | 0.0 | 0.0 | 0.00 | 0.00 | 0.00 | 75 | 1018.1 |
| 20260901010101 | 82 | 0 | 0.0 | 0.0 | 0.00 | 0.00 | 0.00 | 71 | 1017.8 |
| 20260901004608 | 83 | 0 | 0.0 | 0.0 | 0.00 | 0.00 | 0.00 | 70 | 1017.7 |
| 20260901003105 | 84 | 0 | 0.0 | 0.0 | 0.00 | 0.00 | 0.00 | 68 | 1017.5 |
| 20260901001607 | 85 | 0 | 0.0 | 0.0 | 0.00 | 0.00 | 0.00 | 66 | 1017.6 |
| 20260901000107 | 86 | 0 | 0.0 | 0.0 | 0.00 | 0.00 | 0.00 | 66 | 1017.6 |
| 20260831234608 | 87 | 0 | 0.0 | 0.0 | 0.00 | 0.00 | 0.00 | 66 | 1017.5 |
| 20260831233101 | 89 | 0 | 0.0 | 3.0 | 0.00 | 0.00 | 0.00 | 62 | 1017.6 |
| 20260831231603 | 89 | 56 | 2.0 | 6.0 | 0.00 | 0.00 | 0.00 | 59 | 1017.7 |
| 20260831230141 | 89 | 48 | 2.0 | 7.0 | 0.00 | 0.00 | 0.00 | 55 | 1017.8 |
| 20260831224616 | 89 | 60 | 2.0 | 3.0 | 0.00 | 0.00 | 0.00 | 59 | 1018.0 |
| 20260831223106 | 89 | 72 | 0.0 | 3.0 | 0.00 | 0.00 | 0.00 | 60 | 1017.8 |
| 20260831221628 | 89 | 0 | 0.0 | 0.0 | 0.00 | 0.00 | 0.00 | 59 | 1017.9 |
| 20260831214610 | 89 | 0 | 0.0 | 0.0 | 0.00 | 0.00 | 0.00 | 59 | 1017.8 |
| 20260831213101 | 89 | 79 | 0.0 | 3.0 | 0.00 | 0.00 | 0.00 | 59 | 1017.8 |
| 20260831211616 | 89 | 77 | 2.0 | 3.0 | 0.00 | 0.00 | 0.00 | 61 | 1017.9 |
| 20260831210105 | 88 | 0 | 0.0 | 2.0 | 0.00 | 0.00 | 0.00 | 61 | 1017.8 |
| 20260831204603 | 88 | 60 | 1.0 | 3.0 | 0.00 | 0.00 | 0.00 | 60 | 1017.9 |
| 20260831203101 | 88 | 59 | 2.0 | 3.0 | 0.00 | 0.00 | 0.00 | 58 | 1018.1 |
| 20260831201608 | 88 | 65 | 2.0 | 4.0 | 0.00 | 0.00 | 0.00 | 60 | 1018.5 |
| 20260831200116 | 88 | 65 | 4.0 | 6.0 | 0.00 | 0.00 | 0.00 | 61 | 1018.5 |
| 20260831194702 | 87 | 42 | 4.0 | 6.0 | 0.00 | 0.00 | 0.00 | 61 | 1018.6 |
| 20260831193102 | 87 | 39 | 4.0 | 5.0 | 0.00 | 0.00 | 0.00 | 62 | 1018.7 |
| 20260831191559 | 87 | 34 | 1.0 | 4.0 | 0.00 | 0.00 | 0.00 | 61 | 1018.6 |
| 20260831190107 | 87 | 63 | 2.0 | 3.0 | 0.00 | 0.00 | 0.00 | 63 | 1019.0 |
| 20260831184613 | 87 | 65 | 1.0 | 3.0 | 0.00 | 0.00 | 0.00 | 63 | 1019.2 |
| 20260831183103 | 86 | 0 | 0.0 | 0.0 | 0.00 | 0.00 | 0.00 | 63 | 1019.6 |
| 20260831181600 | 86 | 0 | 0.0 | 0.0 | 0.00 | 0.00 | 0.00 | 65 | 1019.8 |
| 20260831180106 | 85 | 46 | 0.0 | 3.0 | 0.00 | 0.00 | 0.00 | 68 | 1019.8 |
| 20260831174609 | 85 | 49 | 1.0 | 2.0 | 0.00 | 0.00 | 0.00 | 69 | 1020.0 |
| 20260831173101 | 85 | 61 | 2.0 | 4.0 | 0.00 | 0.00 | 0.00 | 69 | 1020.2 |
| 20260831171555 | 85 | 65 | 3.0 | 5.0 | 0.00 | 0.00 | 0.00 | 68 | 1020.2 |
| 20260831170135 | 85 | 0 | 1.0 | 4.0 | 0.00 | 0.00 | 0.00 | 70 | 1020.4 |
| 20260831164604 | 85 | 0 | 1.0 | 4.0 | 0.00 | 0.00 | 0.00 | 71 | 1020.5 |
| 20260831163104 | 84 | 0 | 0.0 | 2.0 | 0.00 | 0.00 | 0.00 | 73 | 1020.6 |
| 20260831161615 | 83 | 69 | 1.0 | 5.0 | 0.00 | 0.00 | 0.00 | 75 | 1020.5 |
| 20260831154624 | 83 | 64 | 2.0 | 5.0 | 0.00 | 0.00 | 0.00 | 77 | 1020.9 |
| 20260831153104 | 82 | 59 | 3.0 | 6.0 | 0.00 | 0.00 | 0.00 | 77 | 1020.7 |
| 20260831151605 | 82 | 63 | 4.0 | 6.0 | 0.00 | 0.00 | 0.00 | 78 | 1020.7 |
| 20260831150058 | 81 | 1 | 1.0 | 5.0 | 0.00 | 0.00 | 0.00 | 79 | 1020.7 |
| 20260831144604 | 80 | 332 | 3.0 | 5.0 | 0.00 | 0.00 | 0.00 | 82 | 1020.6 |
| 20260831143105 | 80 | 339 | 3.0 | 5.0 | 0.00 | 0.00 | 0.00 | 85 | 1020.7 |
| 20260831141608 | 79 | 72 | 2.0 | 4.0 | 0.00 | 0.00 | 0.00 | 88 | 1020.6 |
| 20260831140107 | 79 | 68 | 1.0 | 2.0 | 0.00 | 0.00 | 0.00 | 89 | 1020.6 |
| 20260831134606 | 78 | 83 | 0.0 | 3.0 | 0.00 | 0.00 | 0.00 | 89 | 1020.6 |
| 20260831133106 | 78 | 0 | 1.0 | 2.0 | 0.00 | 0.00 | 0.00 | 90 | 1020.5 |
| 20260831131605 | 77 | 342 | 0.0 | 3.0 | 0.00 | 0.00 | 0.00 | 90 | 1020.4 |
| 20260831130100 | 77 | 0 | 0.0 | 2.0 | 0.00 | 0.00 | 0.00 | 91 | 1020.4 |
| 20260831124607 | 76 | 330 | 1.0 | 3.0 | 0.00 | 0.00 | 0.00 | 91 | 1020.3 |
| 20260831123105 | 75 | 180 | 1.0 | 2.0 | 0.00 | 0.00 | 0.00 | 88 | 1020.2 |
| 20260831121610 | 74 | 0 | 0.0 | 0.0 | 0.00 | 0.00 | 0.00 | 88 | 1020.2 |
| 20260831120107 | 73 | 0 | 0.0 | 0.0 | 0.00 | 0.00 | 0.00 | 89 | 1020.2 |
| 20260831114606 | 73 | 0 | 0.0 | 0.0 | 0.00 | 0.00 | 0.00 | 88 | 1020.0 |
| 20260831113105 | 72 | 0 | 0.0 | 0.0 | 0.00 | 0.00 | 0.00 | 87 | 1019.9 |
| 20260831111616 | 72 | 0 | 0.0 | 0.0 | 0.00 | 0.00 | 0.00 | 89 | 1019.9 |
| 20260831110107 | 73 | 0 | 0.0 | 1.0 | 0.00 | 0.00 | 0.00 | 89 | 1019.9 |
| 20260831104600 | 73 | 0 | 0.0 | 0.0 | 0.00 | 0.36 | 0.00 | 88 | 1019.8 |
| 20260831103106 | 73 | 0 | 0.0 | 0.0 | 0.00 | 0.36 | 0.00 | 88 | 1019.8 |
| 20260831101605 | 73 | 0 | 0.0 | 0.0 | 0.00 | 0.36 | 0.00 | 88 | 1019.8 |
| 20260831100058 | 73 | 0 | 0.0 | 0.0 | 0.00 | 0.36 | 0.00 | 89 | 1019.7 |
| 20260831094602 | 73 | 0 | 0.0 | 0.0 | 0.00 | 0.36 | 0.00 | 90 | 1019.7 |
| 20260831093104 | 73 | 0 | 0.0 | 0.0 | 0.00 | 0.36 | 0.00 | 90 | 1019.6 |
| 20260831091610 | 73 | 0 | 0.0 | 0.0 | 0.00 | 0.36 | 0.00 | 90 | 1019.5 |
| 20260831084558 | 73 | 0 | 0.0 | 0.0 | 0.00 | 0.36 | 0.00 | 91 | 1019.5 |
| 20260831083058 | 74 | 0 | 0.0 | 0.0 | 0.00 | 0.36 | 0.00 | 91 | 1019.3 |
| 20260831081608 | 74 | 0 | 0.0 | 0.0 | 0.00 | 0.36 | 0.00 | 91 | 1019.3 |
| 20260831080112 | 74 | 0 | 0.0 | 0.0 | 0.00 | 0.36 | 0.00 | 91 | 1019.1 |
| 20260831074600 | 74 | 0 | 0.0 | 0.0 | 0.00 | 0.36 | 0.00 | 91 | 1018.9 |
| 20260831073103 | 74 | 0 | 0.0 | 0.0 | 0.00 | 0.36 | 0.00 | 91 | 1019.0 |
| 20260831071553 | 74 | 0 | 0.0 | 0.0 | 0.00 | 0.36 | 0.00 | 91 | 1019.1 |
| 20260831070103 | 75 | 0 | 0.0 | 0.0 | 0.00 | 0.36 | 0.00 | 91 | 1019.0 |
| 20260831064558 | 75 | 0 | 0.0 | 0.0 | 0.00 | 0.36 | 0.00 | 91 | 1019.2 |
| 20260831063055 | 75 | 0 | 0.0 | 0.0 | 0.00 | 0.36 | 0.00 | 91 | 1019.5 |
| 20260831061602 | 75 | 0 | 0.0 | 0.0 | 0.00 | 0.36 | 0.00 | 91 | 1019.7 |
| 20260831060113 | 76 | 0 | 0.0 | 0.0 | 0.00 | 0.36 | 0.00 | 91 | 1019.4 |
| 20260831054601 | 76 | 0 | 0.0 | 0.0 | 0.00 | 0.36 | 0.00 | 91 | 1019.4 |
| 20260831053104 | 76 | 0 | 0.0 | 0.0 | 0.00 | 0.36 | 0.00 | 90 | 1019.5 |
| 20260831051559 | 76 | 0 | 0.0 | 0.0 | 0.00 | 0.36 | 0.00 | 89 | 1019.8 |
| 20260831050106 | 77 | 0 | 0.0 | 0.0 | 0.00 | 0.36 | 0.00 | 89 | 1019.8 |
| 20260831044605 | 77 | 0 | 0.0 | 0.0 | 0.00 | 0.36 | 0.00 | 88 | 1019.8 |
| 20260831043102 | 77 | 0 | 0.0 | 0.0 | 0.00 | 0.36 | 0.00 | 87 | 1019.9 |
| 20260831041616 | 77 | 0 | 0.0 | 0.0 | 0.00 | 0.36 | 0.00 | 87 | 1020.0 |
| 20260831040107 | 77 | 0 | 0.0 | 0.0 | 0.00 | 0.36 | 0.00 | 87 | 1019.9 |
| 20260831034559 | 77 | 0 | 0.0 | 0.0 | 0.00 | 0.36 | 0.36 | 87 | 1019.9 |
| 20260831033056 | 77 | 0 | 0.0 | 0.0 | 0.00 | 0.36 | 0.36 | 86 | 1020.0 |
| 20260831031610 | 78 | 0 | 0.0 | 0.0 | 0.00 | 0.36 | 0.36 | 86 | 1020.0 |
| 20260831030118 | 78 | 0 | 0.0 | 0.0 | 0.00 | 0.36 | 0.36 | 86 | 1020.0 |
| 20260831024600 | 78 | 0 | 0.0 | 0.0 | 0.00 | 0.36 | 0.36 | 85 | 1019.9 |